EW3334 Weather Reports


Display with metric or nautical units.
time (UTC)temp
F
wind
direction
speed
MPH
gust
MPH
rain 1hr
in
rain 24hr
in
rain mn
in
humidity
%
barometer
mb
20240715150052 84 325 0.0 2.0 0.00 0.00 0.00 71 1009.6
20240715145546 84 325 1.0 5.0 0.00 0.00 0.00 71 1009.7
20240715145045 83 317 1.0 5.0 0.00 0.00 0.00 69 1009.6
20240715144543 82 113 0.0 4.0 0.00 0.00 0.00 72 1009.8
20240715144046 82 46 1.0 4.0 0.00 0.00 0.00 71 1009.8
20240715143540 81 328 0.0 2.0 0.00 0.00 0.00 72 1009.9
20240715143040 81 315 1.0 2.0 0.00 0.00 0.00 72 1009.8
20240715142538 81 96 0.0 3.0 0.00 0.00 0.00 73 1009.8
20240715142038 80 331 1.0 4.0 0.00 0.00 0.00 74 1009.9
20240715141536 80 227 1.0 4.0 0.00 0.00 0.00 75 1009.9
20240715141035 79 238 0.0 5.0 0.00 0.00 0.00 75 1009.9
20240715140533 79 279 1.0 4.0 0.00 0.00 0.00 76 1009.9
20240715140033 78 172 1.0 4.0 0.00 0.00 0.00 79 1009.8
20240715135531 78 119 0.0 2.0 0.00 0.00 0.00 82 1009.8
20240715135029 77 76 0.0 2.0 0.00 0.00 0.00 82 1009.9
20240715134527 76 303 0.0 1.0 0.00 0.00 0.00 83 1009.8
20240715134026 76 303 0.0 1.0 0.00 0.00 0.00 85 1009.8
20240715133529 75 303 0.0 1.0 0.00 0.00 0.00 85 1009.9
20240715133024 75 303 0.0 3.0 0.00 0.00 0.00 86 1010.2
20240715132523 74 303 1.0 3.0 0.00 0.00 0.00 87 1010.2
20240715132021 74 350 0.0 2.0 0.00 0.00 0.00 87 1010.3
20240715131520 73 344 0.0 3.0 0.00 0.00 0.00 88 1010.4
20240715131021 73 59 0.0 4.0 0.00 0.00 0.00 88 1010.4
20240715130517 72 53 1.0 4.0 0.00 0.00 0.00 88 1010.3
20240715130018 72 5 1.0 2.0 0.00 0.00 0.00 88 1010.4
20240715125514 72 5 0.0 2.0 0.00 0.00 0.00 88 1010.4
20240715125016 71 5 0.0 2.0 0.00 0.00 0.00 89 1010.5
20240715124511 71 5 0.0 2.0 0.00 0.00 0.00 89 1010.6
20240715124012 71 312 0.0 1.0 0.00 0.00 0.00 89 1010.7
20240715123512 71 312 0.0 1.0 0.00 0.00 0.00 89 1010.8
20240715123008 70 312 0.0 1.0 0.00 0.00 0.00 89 1010.8
20240715122511 70 312 0.0 1.0 0.00 0.00 0.00 89 1010.9
20240715122005 70 312 0.0 1.0 0.00 0.00 0.00 89 1010.9
20240715121505 70 312 0.0 1.0 0.00 0.00 0.00 90 1010.9
20240715121004 69 312 0.0 1.0 0.00 0.00 0.00 90 1011.0
20240715120503 69 312 0.0 2.0 0.00 0.00 0.00 90 1011.1
20240715120003 69 312 0.0 2.0 0.00 0.00 0.00 91 1011.1
20240715115502 69 312 0.0 0.0 0.00 0.00 0.00 91 1011.1
20240715115100 68 312 0.0 0.0 0.00 0.00 0.00 91 1011.1
20240715114601 68 312 0.0 0.0 0.00 0.00 0.00 92 1011.1
20240715114058 68 312 0.0 2.0 0.00 0.00 0.00 92 1011.1
20240715113558 67 312 0.0 2.0 0.00 0.00 0.00 92 1011.1
20240715113058 67 312 0.0 1.0 0.00 0.00 0.00 93 1011.0
20240715112557 67 312 0.0 1.0 0.00 0.00 0.00 92 1011.0
20240715112100 66 312 0.0 1.0 0.00 0.00 0.00 92 1011.0
20240715111605 66 312 0.0 1.0 0.00 0.00 0.00 92 1010.9
20240715111055 66 312 0.0 1.0 0.00 0.00 0.00 92 1011.0
20240715110554 65 312 0.0 0.0 0.00 0.00 0.00 92 1011.1
20240715110053 65 312 0.0 0.0 0.00 0.00 0.00 91 1011.0
20240715105552 65 312 0.0 0.0 0.00 0.00 0.00 91 1011.0
20240715105052 65 312 0.0 0.0 0.00 0.00 0.00 91 1011.0
20240715104553 65 312 0.0 0.0 0.00 0.00 0.00 91 1011.0
20240715104052 65 312 0.0 0.0 0.00 0.00 0.00 91 1011.0
20240715103555 64 312 0.0 0.0 0.00 0.00 0.00 91 1010.9
20240715103052 64 312 0.0 0.0 0.00 0.00 0.00 91 1011.0
20240715102551 64 312 0.0 0.0 0.00 0.00 0.00 90 1011.0
20240715102050 64 312 0.0 0.0 0.00 0.00 0.00 90 1011.0
20240715101559 64 312 0.0 0.0 0.00 0.00 0.00 91 1011.0
20240715101050 64 312 0.0 0.0 0.00 0.00 0.00 91 1011.0
20240715100548 64 312 0.0 0.0 0.00 0.00 0.00 91 1011.1
20240715100049 64 312 0.0 0.0 0.00 0.00 0.00 91 1011.1
20240715095549 64 312 0.0 0.0 0.00 0.00 0.00 91 1011.2
20240715095046 63 312 0.0 2.0 0.00 0.00 0.00 90 1011.2
20240715094546 63 312 0.0 2.0 0.00 0.00 0.00 90 1011.2
20240715094046 63 312 0.0 0.0 0.00 0.00 0.00 90 1011.2
20240715093546 63 312 0.0 0.0 0.00 0.00 0.00 90 1011.2
20240715093046 63 312 0.0 0.0 0.00 0.00 0.00 90 1011.2
20240715092546 63 312 0.0 0.0 0.00 0.00 0.00 90 1011.3
20240715092045 63 312 0.0 0.0 0.00 0.00 0.00 89 1011.4
20240715091546 63 312 0.0 0.0 0.00 0.00 0.00 89 1011.3
20240715091045 63 312 0.0 1.0 0.00 0.00 0.00 89 1011.1
20240715090544 63 312 0.0 1.0 0.00 0.00 0.00 89 1011.2
20240715090045 63 312 0.0 0.0 0.00 0.00 0.00 89 1011.2
20240715085545 63 312 0.0 0.0 0.00 0.00 0.00 89 1011.1
20240715085044 63 312 0.0 0.0 0.00 0.00 0.00 89 1011.0
20240715084544 63 312 0.0 1.0 0.00 0.00 0.00 89 1011.0
20240715084045 63 312 0.0 1.0 0.00 0.00 0.00 89 1011.1
20240715083543 63 312 0.0 0.0 0.00 0.00 0.00 88 1011.0
20240715083104 63 312 0.0 0.0 0.00 0.00 0.00 88 1010.9
20240715082547 63 312 0.0 0.0 0.00 0.00 0.00 88 1011.0
20240715082043 63 312 0.0 0.0 0.00 0.00 0.00 88 1011.0
20240715081551 63 312 0.0 1.0 0.00 0.00 0.00 88 1011.1
20240715081042 63 312 0.0 1.0 0.00 0.00 0.00 88 1011.1
20240715080542 63 312 0.0 0.0 0.00 0.00 0.00 88 1011.1
20240715080046 63 312 0.0 0.0 0.00 0.00 0.00 88 1011.1
20240715075545 63 312 0.0 0.0 0.00 0.00 0.00 88 1011.1
20240715075042 63 312 0.0 0.0 0.00 0.00 0.00 87 1011.1
20240715074543 63 312 0.0 0.0 0.00 0.00 0.00 87 1011.1
20240715074043 63 312 0.0 0.0 0.00 0.00 0.00 87 1011.0
20240715073540 63 312 0.0 0.0 0.00 0.00 0.00 87 1011.0
20240715073141 63 312 0.0 0.0 0.00 0.00 0.00 87 1010.9
20240715072539 63 312 0.0 0.0 0.00 0.00 0.00 87 1010.9
20240715072039 63 312 0.0 0.0 0.00 0.00 0.00 86 1010.9
20240715071539 63 312 0.0 1.0 0.00 0.00 0.00 86 1010.8
20240715071038 64 312 0.0 1.0 0.00 0.00 0.00 86 1010.9
20240715070537 64 312 0.0 1.0 0.00 0.00 0.00 86 1011.0
20240715070044 64 312 0.0 2.0 0.00 0.00 0.00 86 1011.0
20240715065543 64 312 1.0 2.0 0.00 0.00 0.00 86 1011.0
20240715065035 64 312 0.0 1.0 0.00 0.00 0.00 86 1011.1
20240715064535 64 312 0.0 0.0 0.00 0.00 0.00 86 1011.1
20240715064035 64 312 0.0 0.0 0.00 0.00 0.00 86 1011.2
20240715063534 64 312 0.0 1.0 0.00 0.00 0.00 86 1011.2
20240715063033 64 312 0.0 1.0 0.00 0.00 0.00 85 1011.2
20240715062534 64 312 0.0 0.0 0.00 0.00 0.00 85 1011.3
20240715062032 64 312 0.0 1.0 0.00 0.00 0.00 85 1011.4
20240715061534 64 312 0.0 1.0 0.00 0.00 0.00 84 1011.4
20240715061031 64 312 0.0 0.0 0.00 0.00 0.00 84 1011.5
20240715060531 64 312 0.0 0.0 0.00 0.00 0.00 83 1011.5
20240715060030 64 312 0.0 0.0 0.00 0.00 0.00 83 1011.7
20240715055530 65 312 0.0 0.0 0.00 0.00 0.00 83 1011.7
20240715055028 65 312 0.0 0.0 0.00 0.00 0.00 82 1011.7
20240715054527 65 312 0.0 0.0 0.00 0.00 0.00 82 1011.8
20240715054027 65 312 0.0 0.0 0.00 0.00 0.00 82 1011.8
20240715053527 65 312 0.0 0.0 0.00 0.00 0.00 81 1011.8
20240715053026 65 312 0.0 0.0 0.00 0.00 0.00 81 1011.8
20240715052525 65 312 0.0 0.0 0.00 0.00 0.00 81 1011.9
20240715052023 65 312 0.0 0.0 0.00 0.00 0.00 81 1011.9
20240715051524 66 312 0.0 0.0 0.00 0.00 0.00 81 1012.0
20240715051023 66 312 0.0 0.0 0.00 0.00 0.00 81 1012.0
20240715050526 66 312 0.0 0.0 0.00 0.00 0.00 80 1012.0
20240715050022 66 312 0.0 0.0 0.00 0.00 0.00 80 1012.0
20240715045521 66 312 0.0 0.0 0.00 0.00 0.00 79 1012.0
20240715045022 66 312 0.0 0.0 0.00 0.00 0.00 79 1012.0
20240715044521 66 312 0.0 0.0 0.00 0.00 0.00 79 1012.1
20240715044019 67 312 0.0 0.0 0.00 0.00 0.00 79 1012.1
20240715043519 67 312 0.0 0.0 0.00 0.00 0.00 79 1012.1
20240715043018 67 312 0.0 0.0 0.00 0.00 0.00 79 1012.1
20240715042517 67 312 0.0 0.0 0.00 0.00 0.00 79 1012.1
20240715042017 67 312 0.0 0.0 0.00 0.00 0.00 79 1012.1
20240715041521 67 312 0.0 0.0 0.00 0.00 0.00 78 1012.0
20240715041015 67 312 0.0 0.0 0.00 0.00 0.00 78 1012.1
20240715040516 68 312 0.0 0.0 0.00 0.00 0.00 78 1012.1
20240715040016 68 312 0.0 0.0 0.00 0.00 0.00 77 1012.1
20240715035513 68 312 0.0 0.0 0.00 0.00 0.00 77 1012.2
20240715035012 68 311 0.0 0.0 0.00 0.00 0.00 77 1012.1
20240715034512 68 312 0.0 0.0 0.00 0.00 0.00 77 1012.1
20240715034015 68 312 0.0 0.0 0.00 0.00 0.00 76 1012.1
20240715033512 68 312 0.0 1.0 0.00 0.00 0.00 76 1012.0
20240715033021 69 312 0.0 1.0 0.00 0.00 0.00 76 1012.1
20240715032511 69 312 0.0 1.0 0.00 0.00 0.00 77 1012.0
20240715032015 69 312 0.0 0.0 0.00 0.00 0.00 76 1012.0
20240715031522 69 312 0.0 0.0 0.00 0.00 0.00 75 1012.1
20240715031011 69 312 0.0 0.0 0.00 0.00 0.00 75 1012.1
20240715030511 69 312 0.0 0.0 0.00 0.00 0.00 75 1012.1
20240715030033 69 312 0.0 0.0 0.00 0.00 0.00 75 1012.1
20240715025513 69 312 0.0 1.0 0.00 0.00 0.00 75 1012.1
20240715025010 70 312 0.0 1.0 0.00 0.00 0.00 76 1012.1
20240715024509 70 312 0.0 1.0 0.00 0.00 0.00 76 1012.2
20240715024009 70 312 0.0 1.0 0.00 0.00 0.00 76 1012.2
20240715023509 70 312 0.0 1.0 0.00 0.00 0.00 77 1012.2
20240715023009 70 312 0.0 1.0 0.00 0.00 0.00 77 1012.2
20240715022508 70 312 0.0 1.0 0.00 0.00 0.00 77 1012.2
20240715022011 70 312 0.0 1.0 0.00 0.00 0.00 77 1012.2
20240715021508 71 312 0.0 1.0 0.00 0.00 0.00 77 1012.2
20240715021008 71 312 0.0 1.0 0.00 0.00 0.00 76 1012.3
20240715020513 71 312 0.0 1.0 0.00 0.00 0.00 77 1012.3
20240715020012 71 312 0.0 1.0 0.00 0.00 0.00 76 1012.3
20240715015510 72 312 0.0 2.0 0.00 0.00 0.00 76 1012.3
20240715015007 72 312 0.0 2.0 0.00 0.00 0.00 76 1012.3
20240715014507 72 288 0.0 1.0 0.00 0.00 0.00 75 1012.2
20240715014007 72 288 0.0 2.0 0.00 0.00 0.00 75 1012.2
20240715013508 73 288 0.0 2.0 0.00 0.00 0.00 74 1012.2
20240715013006 73 274 0.0 1.0 0.00 0.00 0.00 74 1012.3
20240715012506 74 274 0.0 1.0 0.00 0.00 0.00 73 1012.3
20240715012006 74 274 0.0 1.0 0.00 0.00 0.00 72 1012.2
20240715011510 74 274 0.0 1.0 0.00 0.00 0.00 71 1012.2
20240715011006 74 274 0.0 0.0 0.00 0.00 0.00 70 1012.2
20240715010506 75 274 0.0 0.0 0.00 0.00 0.00 70 1012.1
20240715010006 75 274 0.0 0.0 0.00 0.00 0.00 69 1012.0
20240715005506 75 274 0.0 0.0 0.00 0.00 0.00 69 1012.0
20240715005005 76 274 0.0 0.0 0.00 0.00 0.00 68 1012.0
20240715004510 76 274 0.0 0.0 0.00 0.00 0.00 67 1012.0
20240715004005 76 274 0.0 1.0 0.00 0.00 0.00 67 1011.9
20240715003507 77 274 0.0 1.0 0.00 0.00 0.00 67 1011.9
20240715003005 77 274 0.0 1.0 0.00 0.00 0.00 65 1012.0
20240715002504 77 274 0.0 0.0 0.00 0.00 0.00 64 1012.0
20240715002004 78 274 0.0 0.0 0.00 0.00 0.00 64 1012.0
20240715001510 78 274 0.0 0.0 0.00 0.00 0.00 64 1012.1
20240715001005 79 274 0.0 0.0 0.00 0.00 0.00 64 1012.0
20240715000506 79 274 0.0 0.0 0.00 0.00 0.00 63 1012.0
20240715000003 79 274 0.0 0.0 0.00 0.00 0.00 62 1012.0
20240714235502 80 274 0.0 0.0 0.00 0.00 0.00 61 1011.9
20240714235001 80 274 0.0 1.0 0.00 0.00 0.00 61 1011.9
20240714234501 81 274 0.0 2.0 0.00 0.00 0.00 60 1012.0
20240714234003 82 252 0.0 2.0 0.00 0.00 0.00 60 1012.0
20240714233501 82 239 0.0 3.0 0.00 0.00 0.00 59 1012.0
20240714233101 83 239 0.0 3.0 0.00 0.00 0.00 57 1012.0
20240714232600 84 290 1.0 3.0 0.00 0.00 0.00 56 1012.0
20240714232100 84 290 0.0 2.0 0.00 0.00 0.00 55 1012.0
20240714231605 85 290 0.0 2.0 0.00 0.00 0.00 54 1011.9
20240714231102 86 290 0.0 2.0 0.00 0.00 0.00 52 1011.9
20240714230559 87 290 0.0 3.0 0.00 0.00 0.00 51 1011.9
20240714230100 87 290 0.0 4.0 0.00 0.00 0.00 47 1012.0
20240714225559 88 234 0.0 4.0 0.00 0.00 0.00 48 1011.9
20240714225059 88 315 0.0 4.0 0.00 0.00 0.00 47 1012.0
20240714224600 88 240 0.0 3.0 0.00 0.00 0.00 44 1011.9
20240714224058 89 268 1.0 3.0 0.00 0.00 0.00 44 1011.9
20240714223558 89 259 0.0 3.0 0.00 0.00 0.00 46 1011.9
20240714223115 89 263 0.0 2.0 0.00 0.00 0.00 47 1011.9
20240714222558 90 292 0.0 3.0 0.00 0.00 0.00 49 1011.8
20240714222058 90 279 1.0 3.0 0.00 0.00 0.00 48 1011.8
20240714221632 90 294 0.0 2.0 0.00 0.00 0.00 49 1011.9
20240714221058 90 294 0.0 4.0 0.00 0.00 0.00 48 1011.9
20240714220557 90 294 1.0 4.0 0.00 0.00 0.00 44 1012.0
20240714220058 90 276 0.0 5.0 0.00 0.00 0.00 46 1012.0
20240714215557 90 240 2.0 5.0 0.00 0.00 0.00 45 1012.0
20240714215056 90 297 1.0 5.0 0.00 0.00 0.00 44 1011.8
20240714214559 90 255 2.0 5.0 0.00 0.00 0.00 44 1011.8
20240714214058 90 240 1.0 5.0 0.00 0.00 0.00 42 1011.9
20240714213555 90 246 1.0 5.0 0.00 0.00 0.00 42 1011.9
20240714213157 90 294 2.0 8.0 0.00 0.00 0.00 41 1011.9
20240714212555 90 288 3.0 8.0 0.00 0.00 0.00 43 1012.0
20240714212054 90 313 1.0 3.0 0.00 0.00 0.00 47 1011.9
20240714211559 90 292 1.0 6.0 0.00 0.00 0.00 46 1011.9
20240714211053 90 261 3.0 6.0 0.00 0.00 0.00 42 1011.9
20240714210554 90 246 2.0 8.0 0.00 0.00 0.00 44 1011.9
20240714210052 90 255 3.0 8.0 0.00 0.00 0.00 43 1011.9
20240714205553 90 256 0.0 3.0 0.00 0.00 0.00 49 1012.0
20240714205055 90 295 0.0 3.0 0.00 0.00 0.00 49 1012.1
20240714204553 90 227 0.0 6.0 0.00 0.00 0.00 45 1012.1
20240714204050 91 307 2.0 7.0 0.00 0.00 0.00 42 1012.1
20240714203548 91 225 2.0 6.0 0.00 0.00 0.00 43 1012.2
20240714203058 91 232 0.0 2.0 0.00 0.00 0.00 47 1012.2
20240714202547 91 232 0.0 3.0 0.00 0.00 0.00 42 1012.2
20240714202046 91 134 1.0 5.0 0.00 0.00 0.00 43 1012.3
20240714201604 91 313 2.0 5.0 0.00 0.00 0.00 43 1012.3
20240714201044 91 227 1.0 5.0 0.00 0.00 0.00 46 1012.5
20240714200544 90 263 1.0 3.0 0.00 0.00 0.00 42 1012.6
20240714200044 90 169 1.0 6.0 0.00 0.00 0.00 44 1012.6
20240714195543 90 263 2.0 6.0 0.00 0.00 0.00 43 1012.7
20240714195042 90 242 2.0 9.0 0.00 0.00 0.00 43 1012.7
20240714194545 90 245 1.0 9.0 0.00 0.00 0.00 42 1012.8
20240714194040 90 275 1.0 8.0 0.00 0.00 0.00 42 1012.8
20240714193539 90 298 2.0 3.0 0.00 0.00 0.00 43 1012.9
20240714193043 90 291 0.0 1.0 0.00 0.00 0.00 43 1012.9
20240714192539 90 261 0.0 4.0 0.00 0.00 0.00 43 1012.9
20240714192040 90 261 1.0 5.0 0.00 0.00 0.00 42 1013.1
20240714191537 90 189 3.0 7.0 0.00 0.00 0.00 43 1013.1
20240714191036 90 225 1.0 8.0 0.00 0.00 0.00 44 1013.1
20240714190539 90 221 2.0 8.0 0.00 0.00 0.00 48 1013.2
20240714190035 90 243 3.0 6.0 0.00 0.00 0.00 45 1013.2
20240714185534 90 280 2.0 5.0 0.00 0.00 0.00 46 1013.2
20240714185032 90 275 1.0 5.0 0.00 0.00 0.00 45 1013.3
20240714184534 89 282 1.0 6.0 0.00 0.00 0.00 44 1013.3
20240714184031 89 193 3.0 6.0 0.00 0.00 0.00 43 1013.3
20240714183530 89 182 3.0 6.0 0.00 0.00 0.00 46 1013.3
20240714183029 89 111 0.0 8.0 0.00 0.00 0.00 47 1013.3
20240714182529 89 293 2.0 8.0 0.00 0.00 0.00 48 1013.4
20240714182027 89 302 0.0 7.0 0.00 0.00 0.00 49 1013.5
20240714181526 89 228 3.0 7.0 0.00 0.00 0.00 49 1013.5
20240714181028 89 216 1.0 6.0 0.00 0.00 0.00 49 1013.6
20240714180525 89 315 2.0 7.0 0.00 0.00 0.00 46 1013.6
20240714180023 89 250 1.0 8.0 0.00 0.00 0.00 46 1013.7
20240714175523 89 289 1.0 9.0 0.00 0.00 0.00 44 1013.7
20240714175022 89 279 5.0 9.0 0.00 0.00 0.00 44 1013.9
20240714174521 89 304 3.0 8.0 0.00 0.00 0.00 45 1013.9
20240714174020 88 283 3.0 8.0 0.00 0.00 0.00 47 1014.0
20240714173519 88 259 0.0 7.0 0.00 0.00 0.00 50 1014.0
20240714173018 88 236 2.0 6.0 0.00 0.00 0.00 51 1014.1
20240714172520 87 317 2.0 5.0 0.00 0.00 0.00 48 1014.2
20240714172018 88 270 2.0 8.0 0.00 0.00 0.00 47 1014.3
20240714171515 88 261 5.0 8.0 0.00 0.00 0.00 49 1014.4
20240714171013 87 233 1.0 7.0 0.00 0.00 0.00 46 1014.4
20240714170513 86 252 1.0 7.0 0.00 0.00 0.00 48 1014.6
20240714170012 86 252 1.0 7.0 0.00 0.00 0.00 49 1014.7
20240714165511 86 247 3.0 7.0 0.00 0.00 0.00 50 1014.7
20240714165011 86 221 2.0 5.0 0.00 0.00 0.00 51 1014.7
20240714164509 86 306 2.0 9.0 0.00 0.00 0.00 50 1014.7
20240714164007 86 232 3.0 9.0 0.00 0.00 0.00 48 1014.7
20240714163507 87 291 1.0 5.0 0.00 0.00 0.00 48 1014.7
20240714163006 87 215 2.0 6.0 0.00 0.00 0.00 51 1014.8
20240714162505 86 158 0.0 8.0 0.00 0.00 0.00 50 1014.9
20240714162006 86 285 3.0 8.0 0.00 0.00 0.00 50 1015.0
20240714161505 86 284 1.0 4.0 0.00 0.00 0.00 51 1015.1
20240714161003 86 225 0.0 7.0 0.00 0.00 0.00 54 1015.1
20240714160503 86 304 2.0 7.0 0.00 0.00 0.00 53 1015.2
20240714160003 86 5 0.0 4.0 0.00 0.00 0.00 54 1015.1
20240714155600 86 221 1.0 4.0 0.00 0.00 0.00 54 1015.3
20240714155102 86 336 2.0 4.0 0.00 0.00 0.00 54 1015.3
20240714154604 85 355 1.0 7.0 0.00 0.00 0.00 55 1015.3
20240714154055 85 273 3.0 7.0 0.00 0.00 0.00 55 1015.4
20240714153555 85 35 1.0 6.0 0.00 0.00 0.00 55 1015.5
20240714153054 85 346 1.0 7.0 0.00 0.00 0.00 56 1015.5
20240714152605 84 293 1.0 6.0 0.00 0.00 0.00 58 1015.6
20240714152051 84 278 2.0 6.0 0.00 0.00 0.00 57 1015.5
20240714151550 83 261 1.0 8.0 0.00 0.00 0.00 58 1015.6
20240714151048 83 19 1.0 8.0 0.00 0.00 0.00 61 1015.6
20240714150547 82 202 0.0 9.0 0.00 0.00 0.00 60 1015.6